ACA256 KBOS-CYUL

Flight info

Callsign ACA256
Flight time 0h 53m
Altitude 32000
Route HYLND7 HYLND DCT PBERG CARTR5
Aircraft B38M/M-SDE1FGHILORVWXY/HB1

Departure

Time 2026-05-07 00:16
Airport Boston Logan International Airport (KBOS)

Arrival

Time 2026-05-07 01:10
Airport Montreal / Pierre Elliott Trudeau International Airport (CYUL)
Time Latitude Longitude Altitude Speed Heading
2026-05-06 23:06 42.36862 -71.01595 26 ft 0 kts 151°
2026-05-06 23:53 42.36871 -71.01602 30 ft 3 kts 151°
2026-05-06 23:53 42.36887 -71.01614 26 ft 3 kts 151°
2026-05-06 23:54 42.36904 -71.01625 27 ft 3 kts 137°
2026-05-06 23:54 42.36912 -71.01647 26 ft 3 kts 72°
2026-05-06 23:54 42.36909 -71.01657 31 ft 0 kts 59°
2026-05-07 00:01 42.36910 -71.01654 26 ft 1 kts 56°
2026-05-07 00:02 42.36931 -71.01631 27 ft 6 kts 32°
2026-05-07 00:02 42.36980 -71.01588 28 ft 9 kts 39°
2026-05-07 00:02 42.36969 -71.01509 27 ft 10 kts 129°
2026-05-07 00:02 42.36919 -71.01441 28 ft 8 kts 135°
2026-05-07 00:03 42.36902 -71.01417 28 ft 0 kts 135°
2026-05-07 00:03 42.36896 -71.01410 28 ft 3 kts 135°
2026-05-07 00:03 42.36886 -71.01397 27 ft 0 kts 135°
2026-05-07 00:05 42.36883 -71.01393 27 ft 2 kts 135°
2026-05-07 00:05 42.36863 -71.01366 27 ft 6 kts 135°
2026-05-07 00:05 42.36841 -71.01323 32 ft 4 kts 109°
2026-05-07 00:05 42.36840 -71.01284 30 ft 3 kts 75°
2026-05-07 00:06 42.36850 -71.01265 27 ft 3 kts 44°
2026-05-07 00:06 42.36871 -71.01240 25 ft 5 kts 42°
2026-05-07 00:06 42.36908 -71.01196 27 ft 10 kts 41°
2026-05-07 00:06 42.36976 -71.01119 28 ft 15 kts 34°
2026-05-07 00:07 42.37095 -71.01038 27 ft 23 kts 25°
2026-05-07 00:07 42.37249 -71.00936 23 ft 27 kts 25°
2026-05-07 00:07 42.37421 -71.00847 23 ft 25 kts 20°
2026-05-07 00:07 42.37520 -71.00798 26 ft 12 kts 20°
2026-05-07 00:08 42.37601 -71.00759 27 ft 12 kts 20°
2026-05-07 00:08 42.37677 -71.00722 28 ft 9 kts 19°
2026-05-07 00:08 42.37695 -71.00713 29 ft 0 kts 20°
2026-05-07 00:10 42.37696 -71.00713 29 ft 0 kts 20°
2026-05-07 00:11 42.37715 -71.00704 29 ft 6 kts 20°
2026-05-07 00:11 42.37754 -71.00685 30 ft 6 kts 20°
2026-05-07 00:11 42.37788 -71.00668 30 ft 3 kts 20°
2026-05-07 00:11 42.37812 -71.00656 30 ft 4 kts 23°
2026-05-07 00:12 42.37822 -71.00648 30 ft 0 kts 36°
2026-05-07 00:12 42.37823 -71.00646 30 ft 1 kts 37°
2026-05-07 00:12 42.37835 -71.00627 30 ft 3 kts 56°
2026-05-07 00:13 42.37839 -71.00601 29 ft 0 kts 90°
2026-05-07 00:14 42.37838 -71.00597 29 ft 1 kts 93°
2026-05-07 00:14 42.37833 -71.00564 29 ft 6 kts 104°
2026-05-07 00:14 42.37806 -71.00491 27 ft 8 kts 143°
2026-05-07 00:14 42.37755 -71.00491 27 ft 0 kts 197°
2026-05-07 00:15 42.37752 -71.00493 27 ft 3 kts 197°
2026-05-07 00:15 42.37561 -71.00584 27 ft 64 kts 199°
2026-05-07 00:15 42.36943 -71.00890 75 ft 121 kts 201°
2026-05-07 00:15 42.35998 -71.01354 112 ft 174 kts 201°
2026-05-07 00:16 42.34677 -71.01746 175 ft 213 kts 183°
2026-05-07 00:16 42.33097 -71.01606 226 ft 245 kts 173°
2026-05-07 00:16 42.31371 -71.00549 326 ft 304 kts 146°
2026-05-07 00:16 42.29941 -70.98388 1773 ft 303 kts 123°
2026-05-07 00:17 42.29366 -70.95669 3214 ft 301 kts 91°
2026-05-07 00:17 42.29903 -70.93054 4467 ft 285 kts 58°
2026-05-07 00:17 42.31001 -70.90792 4989 ft 296 kts 53°
2026-05-07 00:17 42.32098 -70.88366 4990 ft 302 kts 62°
2026-05-07 00:18 42.32858 -70.85715 4991 ft 307 kts 77°
2026-05-07 00:18 42.33244 -70.82934 5006 ft 303 kts 84°
2026-05-07 00:18 42.33518 -70.80118 4999 ft 301 kts 83°
2026-05-07 00:18 42.34092 -70.77402 5203 ft 303 kts 58°
2026-05-07 00:19 42.35440 -70.75266 5920 ft 299 kts 32°
2026-05-07 00:19 42.37290 -70.74057 6636 ft 295 kts 13°
2026-05-07 00:19 42.39261 -70.73220 7338 ft 297 kts 11°
2026-05-07 00:19 42.41260 -70.72430 8010 ft 301 kts 11°
2026-05-07 00:20 42.43288 -70.71639 8651 ft 303 kts
2026-05-07 00:20 42.45343 -70.71648 9301 ft 292 kts 340°
2026-05-07 00:20 42.47213 -70.72588 9935 ft 286 kts 327°
2026-05-07 00:20 42.49006 -70.73747 10441 ft 293 kts 326°
2026-05-07 00:21 42.50878 -70.74994 10779 ft 307 kts 326°
2026-05-07 00:21 42.52788 -70.76414 11037 ft 315 kts 315°
2026-05-07 00:21 42.54299 -70.78548 11411 ft 314 kts 299°
2026-05-07 00:21 42.55542 -70.81031 11906 ft 320 kts 297°
2026-05-07 00:22 42.56773 -70.83578 12477 ft 325 kts 296°
2026-05-07 00:22 42.58019 -70.86152 13068 ft 329 kts 297°
2026-05-07 00:22 42.59292 -70.88752 13671 ft 333 kts 297°
2026-05-07 00:22 42.60577 -70.91377 14223 ft 335 kts 297°
2026-05-07 00:23 42.61864 -70.94019 14832 ft 336 kts 296°
2026-05-07 00:23 42.63154 -70.96675 15455 ft 337 kts 296°
2026-05-07 00:23 42.64447 -70.99332 16076 ft 337 kts 296°
2026-05-07 00:23 42.65740 -71.01991 16698 ft 337 kts 295°
2026-05-07 00:24 42.67036 -71.04662 17337 ft 337 kts 295°
2026-05-07 00:24 42.68307 -71.07282 17980 ft 337 kts 295°
2026-05-07 00:24 42.69596 -71.09942 18563 ft 336 kts 295°
2026-05-07 00:24 42.70877 -71.12588 19141 ft 334 kts 295°
2026-05-07 00:25 42.72155 -71.15229 19723 ft 332 kts 295°
2026-05-07 00:25 42.73420 -71.17845 20321 ft 330 kts 295°
2026-05-07 00:25 42.74675 -71.20445 20931 ft 327 kts 295°
2026-05-07 00:25 42.75918 -71.23021 21554 ft 324 kts 295°
2026-05-07 00:26 42.77147 -71.25570 22169 ft 320 kts 295°
2026-05-07 00:26 42.78535 -71.27951 22817 ft 325 kts 307°
2026-05-07 00:26 42.80257 -71.29964 23456 ft 325 kts 311°
2026-05-07 00:26 42.81989 -71.31896 24009 ft 319 kts 310°
2026-05-07 00:27 42.83686 -71.33799 24559 ft 313 kts 310°
2026-05-07 00:27 42.85344 -71.35666 25127 ft 306 kts 309°
2026-05-07 00:27 42.86964 -71.37486 25707 ft 298 kts 309°
2026-05-07 00:27 42.88544 -71.39262 26337 ft 289 kts 308°
2026-05-07 00:28 42.90078 -71.40989 26798 ft 285 kts 307°
2026-05-07 00:28 42.91598 -71.42712 27156 ft 283 kts 307°
2026-05-07 00:28 42.93113 -71.44422 27532 ft 282 kts 307°
2026-05-07 00:28 42.94621 -71.46121 27896 ft 280 kts 307°
2026-05-07 00:29 42.96114 -71.47805 28287 ft 278 kts 307°
2026-05-07 00:29 42.97600 -71.49482 28678 ft 275 kts 306°
2026-05-07 00:30 43.01924 -71.54372 29869 ft 263 kts 305°
2026-05-07 00:30 43.03323 -71.55957 30231 ft 259 kts 305°
2026-05-07 00:30 43.04700 -71.57516 30578 ft 255 kts 305°
2026-05-07 00:30 43.06050 -71.59046 30911 ft 249 kts 304°
2026-05-07 00:31 43.07370 -71.60543 31251 ft 243 kts 304°
2026-05-07 00:31 43.08656 -71.62001 31577 ft 237 kts 304°
2026-05-07 00:31 43.09915 -71.63436 31757 ft 236 kts 303°
2026-05-07 00:31 43.11177 -71.64889 31718 ft 244 kts 304°
2026-05-07 00:32 43.12499 -71.66396 31761 ft 250 kts 305°
2026-05-07 00:32 43.13856 -71.67935 31762 ft 256 kts 305°
2026-05-07 00:32 43.15248 -71.69518 31780 ft 263 kts 306°
2026-05-07 00:32 43.16674 -71.71146 31769 ft 270 kts 306°
2026-05-07 00:33 43.18144 -71.72822 31771 ft 278 kts 306°
2026-05-07 00:33 43.19647 -71.74537 31775 ft 286 kts 307°
2026-05-07 00:33 43.21196 -71.76304 31784 ft 293 kts 307°
2026-05-07 00:33 43.22786 -71.78121 31776 ft 301 kts 307°
2026-05-07 00:34 43.26098 -71.81907 31781 ft 317 kts 308°
2026-05-07 00:34 43.29568 -71.85881 31792 ft 333 kts 308°
2026-05-07 00:35 43.33185 -71.90029 31780 ft 349 kts 308°
2026-05-07 00:35 43.37001 -71.94416 31792 ft 366 kts 309°
2026-05-07 00:36 43.40998 -71.99012 31804 ft 382 kts 309°
2026-05-07 00:36 43.44520 -72.04355 31825 ft 373 kts 292°
2026-05-07 00:37 43.45884 -72.07448 31843 ft 384 kts 295°
2026-05-07 00:37 43.47226 -72.10624 31819 ft 385 kts 290°
2026-05-07 00:37 43.48890 -72.13639 31838 ft 413 kts 310°
2026-05-07 00:37 43.51464 -72.15720 31835 ft 447 kts 329°
2026-05-07 00:38 43.57511 -72.17773 31817 ft 429 kts 327°
2026-05-07 00:38 43.59991 -72.19712 31887 ft 409 kts 312°
2026-05-07 00:38 43.62085 -72.22363 31836 ft 409 kts 306°
2026-05-07 00:39 43.66009 -72.28076 31827 ft 412 kts 307°
2026-05-07 00:39 43.70453 -72.33186 31827 ft 417 kts 314°
2026-05-07 00:40 43.74876 -72.38294 31829 ft 413 kts 310°
2026-05-07 00:40 43.79257 -72.43492 31485 ft 416 kts 312°
2026-05-07 00:41 43.81488 -72.46047 31169 ft 414 kts 312°
2026-05-07 00:41 43.83656 -72.48593 30846 ft 414 kts 311°
2026-05-07 00:41 43.85875 -72.51242 30492 ft 418 kts 312°
2026-05-07 00:41 43.88072 -72.53832 30118 ft 422 kts 313°
2026-05-07 00:42 43.90325 -72.56464 29720 ft 425 kts 313°
2026-05-07 00:42 43.92594 -72.59125 29300 ft 427 kts 313°
2026-05-07 00:42 43.94854 -72.61802 28937 ft 426 kts 313°
2026-05-07 00:42 43.97108 -72.64470 28601 ft 425 kts 313°
2026-05-07 00:43 43.99360 -72.67128 28258 ft 423 kts 313°
2026-05-07 00:43 44.01598 -72.69772 27912 ft 421 kts 313°
2026-05-07 00:43 44.03824 -72.72411 27583 ft 420 kts 313°
2026-05-07 00:43 44.06041 -72.75041 27287 ft 418 kts 312°
2026-05-07 00:44 44.08250 -72.77664 26943 ft 417 kts 313°
2026-05-07 00:44 44.10457 -72.80286 26591 ft 417 kts 312°
2026-05-07 00:44 44.12666 -72.82914 26245 ft 416 kts 312°
2026-05-07 00:44 44.14862 -72.85528 25933 ft 415 kts 312°
2026-05-07 00:45 44.17054 -72.88140 25615 ft 414 kts 312°
2026-05-07 00:45 44.19214 -72.90717 25306 ft 413 kts 312°
2026-05-07 00:45 44.21384 -72.93310 24999 ft 411 kts 312°
2026-05-07 00:45 44.23558 -72.95908 24708 ft 410 kts 312°
2026-05-07 00:46 44.25717 -72.98491 24415 ft 408 kts 312°
2026-05-07 00:46 44.27867 -73.01067 24147 ft 406 kts 311°
2026-05-07 00:46 44.30006 -73.03631 23849 ft 404 kts 311°
2026-05-07 00:46 44.32132 -73.06184 23566 ft 403 kts 311°
2026-05-07 00:47 44.34256 -73.08737 23227 ft 402 kts 311°
2026-05-07 00:47 44.36378 -73.11288 22889 ft 401 kts 311°
2026-05-07 00:47 44.38481 -73.13819 22549 ft 399 kts 311°
2026-05-07 00:47 44.40580 -73.16348 22218 ft 397 kts 311°
2026-05-07 00:48 44.42667 -73.18866 21904 ft 395 kts 311°
2026-05-07 00:48 44.44735 -73.21363 21586 ft 392 kts 311°
2026-05-07 00:48 44.46799 -73.23858 21272 ft 390 kts 311°
2026-05-07 00:48 44.48825 -73.26309 20991 ft 388 kts 311°
2026-05-07 00:49 44.50858 -73.28769 20686 ft 385 kts 311°
2026-05-07 00:49 44.52876 -73.31216 20377 ft 382 kts 311°
2026-05-07 00:49 44.54881 -73.33649 20091 ft 380 kts 311°
2026-05-07 00:49 44.56876 -73.36072 19781 ft 378 kts 311°
2026-05-07 00:50 44.58857 -73.38480 19475 ft 376 kts 311°
2026-05-07 00:50 44.60830 -73.40880 19175 ft 373 kts 311°
2026-05-07 00:50 44.62787 -73.43263 18875 ft 371 kts 311°
2026-05-07 00:50 44.64733 -73.45635 18585 ft 369 kts 311°
2026-05-07 00:51 44.66665 -73.47992 18285 ft 367 kts 311°
2026-05-07 00:51 44.68592 -73.50343 17970 ft 365 kts 311°
2026-05-07 00:51 44.70808 -73.52191 17661 ft 383 kts 334°
2026-05-07 00:51 44.73482 -73.52817 17333 ft 393 kts 348°
2026-05-07 00:52 44.76212 -73.53038 17005 ft 393 kts 350°
2026-05-07 00:52 44.78938 -73.53261 16678 ft 390 kts 348°
2026-05-07 00:52 44.81618 -73.53610 16297 ft 385 kts 347°
2026-05-07 00:52 44.84282 -73.53983 15776 ft 384 kts 348°
2026-05-07 00:53 44.86937 -73.54296 15271 ft 381 kts 349°
2026-05-07 00:53 44.89543 -73.54557 14751 ft 379 kts 349°
2026-05-07 00:53 44.92174 -73.54829 14231 ft 377 kts 349°
2026-05-07 00:53 44.94780 -73.55124 13705 ft 375 kts 349°
2026-05-07 00:54 44.97380 -73.55420 13171 ft 372 kts 349°
2026-05-07 00:54 44.99958 -73.55701 12640 ft 369 kts 349°
2026-05-07 00:54 45.02507 -73.55977 12133 ft 365 kts 349°
2026-05-07 00:54 45.05036 -73.56257 11626 ft 362 kts 349°
2026-05-07 00:55 45.07491 -73.56524 11075 ft 339 kts 349°
2026-05-07 00:55 45.09730 -73.56757 10787 ft 304 kts 349°
2026-05-07 00:55 45.11785 -73.56986 10422 ft 293 kts 348°
2026-05-07 00:55 45.13796 -73.57228 10161 ft 291 kts 349°
2026-05-07 00:56 45.15807 -73.57453 9922 ft 289 kts 349°
2026-05-07 00:56 45.17815 -73.57670 9641 ft 288 kts 349°
2026-05-07 00:56 45.19748 -73.57874 9294 ft 267 kts 349°
2026-05-07 00:56 45.21522 -73.58064 9078 ft 245 kts 349°
2026-05-07 00:57 45.23170 -73.58252 8819 ft 233 kts 348°
2026-05-07 00:57 45.24806 -73.58448 8446 ft 245 kts 349°
2026-05-07 00:57 45.26493 -73.58637 8084 ft 239 kts 352°
2026-05-07 00:57 45.28127 -73.58809 7903 ft 238 kts 351°
2026-05-07 00:58 45.29774 -73.58992 7519 ft 234 kts 351°
2026-05-07 00:58 45.31390 -73.59170 7135 ft 231 kts 352°
2026-05-07 00:58 45.32986 -73.59346 6759 ft 228 kts 352°
2026-05-07 00:58 45.34559 -73.59518 6388 ft 225 kts 352°
2026-05-07 00:59 45.37632 -73.59856 5674 ft 221 kts 352°
2026-05-07 00:59 45.39165 -73.59866 5283 ft 223 kts 11°
2026-05-07 00:59 45.40560 -73.58887 4915 ft 226 kts 30°
2026-05-07 01:00 45.41851 -73.57627 4524 ft 225 kts 32°
2026-05-07 01:00 45.42703 -73.56777 4278 ft 225 kts 31°
2026-05-07 01:00 45.43988 -73.55530 4002 ft 221 kts 28°
2026-05-07 01:00 45.45432 -73.54953 3842 ft 219 kts 357°
2026-05-07 01:01 45.46918 -73.54602 3479 ft 220 kts 19°
2026-05-07 01:01 45.48284 -73.53604 3098 ft 222 kts 25°
2026-05-07 01:01 45.49611 -73.52502 3009 ft 220 kts 26°
2026-05-07 01:01 45.50941 -73.51380 3001 ft 222 kts 26°
2026-05-07 01:02 45.52264 -73.50263 3006 ft 221 kts 26°
2026-05-07 01:02 45.53591 -73.49146 3005 ft 221 kts 26°
2026-05-07 01:02 45.54917 -73.48026 3005 ft 222 kts 26°
2026-05-07 01:02 45.56243 -73.46905 3003 ft 222 kts 26°
2026-05-07 01:03 45.57578 -73.45778 3008 ft 225 kts 26°
2026-05-07 01:03 45.59035 -73.45017 3006 ft 221 kts
2026-05-07 01:03 45.60525 -73.45255 3006 ft 214 kts 336°
2026-05-07 01:03 45.61778 -73.46348 3005 ft 211 kts 319°
2026-05-07 01:04 45.62899 -73.47701 3007 ft 210 kts 316°
2026-05-07 01:04 45.63915 -73.49159 3001 ft 208 kts 302°
2026-05-07 01:04 45.64319 -73.51100 3011 ft 208 kts 267°
2026-05-07 01:04 45.63829 -73.53049 2998 ft 210 kts 238°
2026-05-07 01:05 45.62883 -73.54494 2985 ft 188 kts 227°
2026-05-07 01:05 45.61968 -73.55658 2977 ft 165 kts 226°
2026-05-07 01:05 45.61135 -73.56742 2988 ft 162 kts 228°
2026-05-07 01:05 45.60315 -73.57819 2987 ft 159 kts 228°
2026-05-07 01:06 45.59498 -73.58892 2987 ft 160 kts 228°
2026-05-07 01:06 45.58680 -73.59969 2927 ft 161 kts 228°
2026-05-07 01:06 45.57860 -73.61047 2723 ft 159 kts 228°
2026-05-07 01:06 45.57049 -73.62113 2507 ft 158 kts 227°
2026-05-07 01:07 45.56259 -73.63162 2296 ft 156 kts 227°
2026-05-07 01:07 45.55472 -73.64196 2082 ft 152 kts 227°
2026-05-07 01:07 45.54698 -73.65214 1876 ft 150 kts 226°
2026-05-07 01:07 45.53935 -73.66216 1682 ft 149 kts 226°
2026-05-07 01:08 45.53186 -73.67209 1461 ft 143 kts 225°
2026-05-07 01:08 45.52483 -73.68128 1187 ft 132 kts 226°
2026-05-07 01:08 45.51810 -73.69013 996 ft 132 kts 225°
2026-05-07 01:08 45.51137 -73.69899 876 ft 133 kts 224°
2026-05-07 01:09 45.50452 -73.70806 719 ft 136 kts 224°
2026-05-07 01:09 45.49752 -73.71735 506 ft 137 kts 223°
2026-05-07 01:09 45.49041 -73.72650 365 ft 138 kts 222°
2026-05-07 01:09 45.48345 -73.73557 147 ft 131 kts 223°
2026-05-07 01:10 45.47761 -73.74338 115 ft 99 kts 223°
2026-05-07 01:10 45.47322 -73.74917 117 ft 74 kts 223°
2026-05-07 01:10 45.47025 -73.75308 112 ft 47 kts 222°
2026-05-07 01:10 45.46803 -73.75551 116 ft 35 kts 204°
2026-05-07 01:11 45.46601 -73.75632 119 ft 26 kts 193°
2026-05-07 01:11 45.46439 -73.75685 117 ft 21 kts 193°
2026-05-07 01:11 45.46384 -73.75703 115 ft 0 kts 193°
2026-05-07 01:12 45.46381 -73.75704 115 ft 2 kts 193°
2026-05-07 01:12 45.46352 -73.75713 113 ft 7 kts 193°
2026-05-07 01:12 45.46291 -73.75732 115 ft 11 kts 192°
2026-05-07 01:12 45.46222 -73.75730 113 ft 10 kts 167°
2026-05-07 01:13 45.46149 -73.75717 112 ft 11 kts 180°
2026-05-07 01:13 45.46067 -73.75718 110 ft 12 kts 181°
2026-05-07 01:13 45.45997 -73.75734 109 ft 9 kts 183°
2026-05-07 01:13 45.45974 -73.75733 109 ft 0 kts 178°